Change the Weather History Date:

Sunday, January 27, 2013

  Actual Average Record
Temperature  
Mean Temperature 50 °F 31 °F  
Max Temperature 60 °F 40 °F 64 °F (2002)
Min Temperature 40 °F 21 °F -12 °F (1940)
Degree Days  
Heating Degree Days 15 34  
Month to date heating degree days 866 943  
Since 1 July heating degree days 2664 2908  
Cooling Degree Days 0 0  
Month to date cooling degree days 0 0  
Year to date cooling degree days 0 0  
Moisture  
Dew Point 44 °F    
Average Humidity 81    
Maximum Humidity 92    
Minimum Humidity 70    
Precipitation  
Precipitation 0.08 in 0.05 in 0.41 in (1974)
Month to date precipitation 0.39 0.91  
Year to date precipitation 0.39 0.91  
Sea Level Pressure  
Sea Level Pressure 29.89 in    
Wind  
Wind Speed 15 mph (South)    
Max Wind Speed 26 mph    
Max Gust Speed 36 mph    
Visibility 9 miles    
Events Rain    
T = Trace of Precipitation, MM = Missing Value Source: NWS Daily Summary

Daily Weather History Graph

Daily Weather History Graph

Search for Another Location

Airport or City:

Trip Planner

Search our weather history database for the weather conditions in past years. The results will help you decide how hot, cold, wet, or windy it might be!

Date:

Astronomy

Jan. 27, 2013 Rise Set
Actual Time 7:28 AM CST 5:35 PM CST
Civil Twilight 7:00 AM CST 6:03 PM CST
Nautical Twilight 6:28 AM CST 6:35 PM CST
Astronomical Twilight 5:57 AM CST 7:07 PM CST
Moon 6:29 PM CST (1/27) 7:23 AM CST (1/27)
Length of Visible Light 11h 02m
Length of Day
10h 06m
Full, 100% of the Moon is Illuminated
Jan 27
Full
Feb 3
Last Quarter
Feb 10
New
Feb 17
First Quarter
Feb 25
Full

Hourly Weather History & Observations

Time (CST) Temp. Windchill Dew Point Humidity Pressure Visibility Wind Dir Wind Speed Gust Speed Precip Events Conditions
12:53 AM 41.0 °F 34.3 °F 32.0 °F 70% 30.07 in 6.0 mi SSE 11.5 mph - 0.02 in Rain Light Rain
1:53 AM 39.9 °F 32.5 °F 35.1 °F 83% 30.06 in 8.0 mi SSE 12.7 mph - 0.04 in Rain Light Rain
2:36 AM 39.2 °F 31.6 °F 35.6 °F 87% 30.05 in 10.0 mi SSE 12.7 mph - 0.01 in Rain Light Rain
2:53 AM 39.9 °F 32.1 °F 35.1 °F 83% 30.03 in 10.0 mi SSE 13.8 mph - 0.01 in Rain Light Rain
3:53 AM 39.9 °F 32.9 °F 35.1 °F 83% 30.02 in 10.0 mi SSE 11.5 mph - 0.00 in   Overcast
4:53 AM 39.9 °F 33.9 °F 34.0 °F 79% 30.00 in 10.0 mi SE 9.2 mph - N/A   Overcast
5:06 AM 39.2 °F 34.2 °F 33.8 °F 81% 29.99 in 10.0 mi SE 6.9 mph - N/A   Overcast
5:32 AM 39.2 °F 32.5 °F 35.6 °F 87% 29.97 in 10.0 mi SE 10.4 mph - N/A   Overcast
5:53 AM 39.9 °F 32.9 °F 35.1 °F 83% 29.97 in 10.0 mi SSE 11.5 mph - N/A   Overcast
6:06 AM 39.2 °F 31.6 °F 35.6 °F 87% 29.96 in 10.0 mi SSE 12.7 mph 19.6 mph N/A   Overcast
6:53 AM 39.9 °F 32.5 °F 36.0 °F 86% 29.96 in 10.0 mi SSE 12.7 mph - 0.01 in   Overcast
7:53 AM 41.0 °F 33.1 °F 37.9 °F 89% 29.94 in 9.0 mi SSE 15.0 mph - N/A   Overcast
8:53 AM 42.1 °F 34.5 °F 39.0 °F 89% 29.91 in 7.0 mi SSE 15.0 mph 23.0 mph N/A   Overcast
9:53 AM 45.0 °F 38.9 °F 42.1 °F 90% 29.90 in 7.0 mi South 12.7 mph - N/A   Overcast
10:53 AM 48.9 °F - 45.0 °F 86% 29.88 in 7.0 mi South 17.3 mph 26.5 mph N/A   Overcast
11:53 AM 51.1 °F - 48.0 °F 89% 29.85 in 7.0 mi South 19.6 mph 29.9 mph N/A   Overcast
12:53 PM 54.0 °F - 48.9 °F 83% 29.82 in 8.0 mi South 21.9 mph 27.6 mph N/A   Overcast
1:20 PM 55.4 °F - 50.0 °F 82% 29.80 in 9.0 mi SSW 17.3 mph 26.5 mph N/A   Overcast
1:53 PM 57.0 °F - 51.1 °F 81% 29.78 in 10.0 mi SSW 18.4 mph 28.8 mph N/A   Overcast
2:53 PM 59.0 °F - 50.0 °F 72% 29.77 in 10.0 mi SSW 17.3 mph 28.8 mph N/A   Mostly Cloudy
3:00 PM 59.0 °F - 50.0 °F 72% 29.77 in 10.0 mi SSW 24.2 mph 34.5 mph N/A   Mostly Cloudy
3:53 PM 59.0 °F - 50.0 °F 72% 29.76 in 10.0 mi South 18.4 mph 28.8 mph N/A   Partly Cloudy
4:53 PM 59.0 °F - 50.0 °F 72% 29.75 in 10.0 mi South 18.4 mph 29.9 mph N/A   Partly Cloudy
5:53 PM 57.9 °F - 50.0 °F 75% 29.76 in 10.0 mi South 18.4 mph 29.9 mph N/A   Mostly Cloudy
6:53 PM 57.9 °F - 51.1 °F 78% 29.79 in 10.0 mi SSW 12.7 mph 27.6 mph N/A   Overcast
7:53 PM 57.9 °F - 52.0 °F 81% 29.80 in 10.0 mi SSW 17.3 mph 26.5 mph N/A   Overcast
8:53 PM 57.9 °F - 53.1 °F 84% 29.81 in 9.0 mi SSW 13.8 mph - N/A   Overcast
9:53 PM 57.9 °F - 53.1 °F 84% 29.82 in 8.0 mi SSW 16.1 mph 21.9 mph N/A   Overcast
10:37 PM 59.0 °F - 53.6 °F 82% 29.83 in 8.0 mi SSW 13.8 mph 21.9 mph N/A   Overcast
10:53 PM 59.0 °F - 54.0 °F 83% 29.83 in 8.0 mi SSW 11.5 mph 19.6 mph N/A   Overcast
11:53 PM 59.0 °F - 55.0 °F 87% 29.82 in 7.0 mi SSW 12.7 mph - N/A   Overcast